Weather Service Report


241 
ASUS41 KPHI 281611
RWRPHI

REGIONAL WEATHER ROUNDUP
NATIONAL WEATHER SERVICE MOUNT HOLLY NJ
1200 PM EDT TUE APR 28 2015

NOTE:  "FAIR" INDICATES FEW OR NO CLOUDS BELOW 12,000 FEET WITH NO
SIGNIFICANT WEATHER AND/OR OBSTRUCTIONS TO VISIBILITY.

 * = STATION DOES NOT REPORT PRECIPITATION (E.G. RAIN, SNOW, ETC.) 
        OR FOG.

NJZ015>026-281700-
SOUTHERN NEW JERSEY
  
CITY           SKY/WX    TMP DP  RH WIND       PRES   REMARKS
POMONA         PTSUNNY   62  36  37 N16G24    29.82S                  
RIO GRANDE*    MOSUNNY   61  37  41 N13         N/A                   
MILLVILLE      MOSUNNY   63  38  39 N10G22    29.83F                  
WRIGHTSTOWN    MOSUNNY   61  37  41 NW15      29.80F                  
MOUNT HOLLY    PTSUNNY   61  39  44 N10       29.83F                  
TRENTON        MOSUNNY   62  37  39 N13G23    29.82F                  

$$
NJZ001>014-281700-
NORTHERN NEW JERSEY
  
CITY           SKY/WX    TMP DP  RH WIND       PRES   REMARKS
SUSSEX         MOSUNNY   62  33  33 N12G24    29.81F                  
ANDOVER*         N/A     62  33  33 N8G20     29.81F                  
MORRISTOWN     PTSUNNY   66  36  32 SW9G22    29.81S                  
NEWARK         MOSUNNY   63  33  32 N7G18     29.80F                  
TETERBORO      MOSUNNY   63  33  32 N14G21    29.79S                  
CALDWELL       MOSUNNY   63  32  31 NW14G20   29.80F                  
SOMERVILLE     PTSUNNY   63  34  33 N8G20     29.80F                  
ALLAIRE*       PTSUNNY   61  34  36 NW14G22   29.82S                  
TOMS RIVER*    PTSUNNY   61  34  36 N14       29.82F                  

$$
PAZ043-044-047-054-055-060>062-066>071-281700-
EASTERN PENNSYLVANIA
  
CITY           SKY/WX    TMP DP  RH WIND       PRES   REMARKS
PHILADELPHIA   MOSUNNY   64  38  38 NW18G32   29.85F                  
NORTH PHILA    MOSUNNY   65  35  33 N16G25    29.85F                  
BLUE BELL      MOSUNNY   61  39  44 NW13G18   29.84S                  
DOYLESTOWN     SUNNY     63  36  36 N14G20    29.82F                  
QUAKERTOWN*    MOSUNNY   59  39  47 N13G22    29.85F                  
POTTSTOWN      SUNNY     61  39  44 N16G28    29.86F                  
LANCASTER      MOSUNNY   61  42  49 N16G25    29.88F                  
COATESVILLE    MOSUNNY   59  41  51 N12G20    29.87F                  
READING        PTSUNNY   62  41  46 N14G24    29.86F                  
ALLENTOWN      MOSUNNY   64  39  39 NW14G22   29.84F                  
MOUNT POCONO   PTSUNNY   53  36  52 NW14G32   29.83F                  
HAZLETON       CLOUDY    55  37  50 NW16G26   29.90F                  
WILKES BARRE   CLOUDY    59  39  47 N18       29.87F                  

$$
DEZALL-MDZ008-012-015-019-020-281700-
DELAWARE AND EASTERN MARYLAND
  
CITY           SKY/WX    TMP DP  RH WIND       PRES   REMARKS
WILMINGTON     PTSUNNY   63  40  42 N14G22    29.86F                  
DOVER          SUNNY     62  44  51 N22G29    29.82S                  
GEORGETOWN     MOSUNNY   62  39  42 N14G29    29.85F                  
EASTON         MOSUNNY   63  45  51 N10G20    29.92F                  
ABERDEEN       PTSUNNY   61  41  48 N17       29.89F                  
PATUXENT       MOSUNNY   62  41  46 N15       29.90R                  
OCEAN CITY     PTSUNNY   59  39  47 N15       29.85S                  
WALLOPS ISLAND MOSUNNY   60  40  47 N12       29.87R                  
CAMBRIDGE      SUNNY     61  41  48 NW15G22   29.88S                  
SALISBURY      MOSUNNY   61  38  42 N14G26    29.86S                  

$$
PAZ001-021-NYZ056-072-MDZ011-DCZ001-281700-
OTHER NEARBY LOCATIONS
  
CITY           SKY/WX    TMP DP  RH WIND       PRES   REMARKS
HARRISBURG     MOSUNNY   63  38  39 N12G21    29.90F                  
STATE COLLEGE  PTSUNNY   59  37  44 N13G20    29.95F                  
WILLIAMSPORT   MOSUNNY   64  37  36 N17G25    29.90F                  
BINGHAMTON     PTSUNNY   55  41  59 N12G21    29.89F                  
NEW YORK CITY  MOSUNNY   65  35  33 NE12G18   29.82S                  
BALTIMORE      MOSUNNY   64  40  41 N10G20    29.89S                  
WASHINGTON DC  MOSUNNY   65  42  43 NW16G22   29.92F                  

$$

Return to Home page


Western Regional Climate Center, wrcc@dri.edu